#timestamp,LO_Frequency,Hit,StdDev 
1546322415.9,286046998.4,N
1546322435.7,286046997.2,N
1546322455.5,286046996.7,N
1546322475.4,286046998.7,N
1546322495.2,286046998.7,N
1546322515.0,286047000.6,N
1546322515.9,286047000.6,N
1546322535.8,286046998.1,N
1546322555.6,286046999.6,N
1546322575.5,286046998.8,N
1546322595.3,286046999.1,N
1546322615.1,286046999.1,N
1546322635.9,286046998.3,N
1546322655.7,286046998.7,N
1546322675.5,286047001.2,N
1546322695.4,286046998.6,N
1546322715.2,286047000.5,N
1546322735.0,286047001.5,N
1546322736.0,286047001.5,N
1546322755.8,286047002.4,N
1546322775.6,286047001.0,N
1546322795.5,286046998.5,N
1546322815.3,286047000.3,N
1546322835.1,286047000.8,N
1546322855.9,286047001.2,N
1546322875.7,286046999.8,N
1546322895.5,286046999.8,N
1546322915.4,286047000.6,N
1546322935.2,286047000.5,N
1546322955.1,286046999.1,N
1546322956.0,286046999.1,N
1546322975.8,286046998.6,N
1546322995.6,286046999.4,N
1546323015.5,286046998.5,N
1546323035.3,286047000.5,N
1546323055.1,286047000.1,N
1546323075.9,286047002.4,N
1546323095.7,286047003.6,N
1546323115.6,286047003.0,N
1546323135.4,286047005.1,Y
1546323155.2,286047005.2,P
1546323175.1,286047004.0,N
1546323176.0,286047004.0,N
1546323195.8,286047003.6,N
1546323215.7,286047003.6,N
1546323235.5,286047004.0,N
1546323255.3,286047002.0,N
1546323275.2,286047002.5,N
1546323295.9,286047001.7,N
1546323315.7,286047002.0,N
1546323335.6,286047001.7,N
1546323355.4,286047001.9,N
1546323375.3,286047000.1,N
1546323395.1,286046999.9,N
1546323396.0,286046999.9,N
1546323415.8,286047000.8,N
1546323435.7,286047001.2,N
1546323455.5,286047000.9,N
1546323475.3,286047000.4,N
1546323495.2,286047001.7,N
1546323515.0,286047001.7,N
1546323515.9,286047001.7,N
1546323535.8,286047004.4,N
1546323555.6,286047001.6,N
1546323575.4,286047002.4,N
1546323595.3,286047000.5,N
1546323615.1,286047002.6,N
1546323635.8,286047002.3,N
1546323655.7,286047001.1,N
1546323675.5,286047000.7,N
1546323695.3,286047000.7,N
1546323715.2,286047001.2,N
1546323735.0,286047001.1,N
1546323735.9,286047001.1,N
1546323755.8,286047000.8,N
1546323775.6,286047002.6,N
1546323795.4,286047001.5,N
1546323815.3,286047002.5,N
1546323835.1,286047001.9,N
1546323855.8,286047001.8,N
1546323875.7,286047002.6,N
1546323895.5,286047001.8,N
1546323915.4,286047001.3,N
1546323935.2,286047003.1,Y
1546323955.0,286047002.7,P
1546323955.9,286047002.7,P
1546323975.8,286047000.7,N
1546323995.6,286047000.7,N
1546324015.5,286047001.1,N
1546324035.3,286047001.1,N
1546324055.1,286046999.1,N
1546324075.9,286046998.2,N
1546324095.7,286047001.1,N
1546324115.5,286047000.3,N
1546324135.4,286047000.3,N
1546324155.2,286047001.1,N
1546324175.1,286046998.3,N
1546324176.0,286046998.3,N
1546324195.8,286047002.1,N
1546324215.6,286047000.5,N
1546324235.5,286047000.0,N
1546324255.3,286047002.1,N
1546324275.2,286047000.5,N
1546324295.9,286047000.6,N
1546324315.7,286046998.2,N
1546324335.6,286046998.1,N
1546324355.4,286046998.4,N
1546324375.2,286047001.2,N
1546324395.1,286046999.2,N
1546324396.0,286046999.2,N
1546324415.8,286046997.1,N
1546324435.7,286046999.0,N
1546324455.5,286046998.2,N
1546324475.3,286046996.5,N
1546324495.2,286046997.0,N
1546324515.0,286046999.3,N
1546324515.9,286046999.3,N
1546324535.7,286046999.1,N
1546324555.6,286046996.5,N
1546324575.4,286046998.6,N
1546324595.3,286046998.2,N
1546324615.1,286046998.5,N
1546324616.0,286046998.5,N
1546324635.8,286047000.3,N
1546324655.7,286047001.0,N
1546324675.5,286046998.2,N
1546324695.3,286047001.1,N
1546324715.2,286046998.6,N
1546324735.0,286047000.9,N
1546324735.9,286047000.9,N
1546324755.8,286046998.2,N
1546324775.6,286047000.5,N
1546324795.4,286046998.8,N
1546324815.3,286046999.9,N
1546324835.1,286047000.4,N
1546324855.8,286047002.6,N
1546324875.7,286047002.5,N
1546324895.5,286047002.0,N
1546324915.4,286047001.7,N
1546324935.2,286047001.7,N
1546324955.0,286047002.4,N
1546324955.9,286047002.4,N
1546324975.8,286046999.8,N
1546324995.6,286046998.8,N
1546325015.4,286047001.0,N
1546325035.3,286047001.2,N
1546325055.1,286046998.3,N
1546325075.9,286047000.8,N
1546325095.7,286047000.1,N
1546325115.5,286047001.2,N
1546325135.4,286046998.4,N
1546325155.2,286047000.9,N
1546325175.0,286046998.3,N
1546325175.9,286046998.3,N
1546325195.8,286046999.2,N
1546325215.6,286047001.0,N
1546325235.4,286047000.3,N
1546325255.3,286047000.7,N
1546325275.1,286047001.1,N
1546325295.9,286046999.7,N
1546325315.7,286047000.9,N
1546325335.5,286046996.5,N
1546325355.4,286046999.0,N
1546325375.2,286046999.1,N
1546325395.0,286046998.1,N
1546325426.0,286046999.1,E
1546325435.9,286046999.4,N
1546325455.7,286046998.5,P
1546325475.6,286046998.7,N
1546325495.4,286047001.1,N
1546325515.2,286046998.6,N
1546325535.1,286046999.2,N
1546325536.0,286046999.2,N
1546325555.8,286046999.9,N
1546325575.7,286046999.9,N
1546325595.5,286047000.8,N
1546325615.3,286046999.8,N
1546325635.2,286047000.1,N
1546325655.0,286047002.8,Y
1546325655.9,286047002.8,P
1546325675.7,286047002.7,N
1546325695.6,286047000.6,N
1546325715.4,286046998.1,N
1546325735.3,286046998.1,N
1546325755.1,286046999.2,N
1546325756.0,286046999.2,N
1546325775.8,286046997.3,N
1546325795.7,286046995.3,N
1546325815.5,286046997.4,N
1546325835.3,286046997.8,N
1546325855.2,286046998.7,N
1546325875.0,286046998.4,N
1546325875.9,286046998.4,N
1546325895.8,286046998.8,N
1546325915.6,286047000.5,N
1546325935.4,286047000.2,N
1546325955.3,286047002.3,N
1546325975.1,286047001.5,N
1546325976.0,286047001.5,N
1546325995.8,286047001.7,N
